TimePDT,TemperatureF,Dew PointF,Humidity,Sea Level PressureIn,VisibilityMPH,Wind Direction,Wind SpeedMPH,Gust SpeedMPH,PrecipitationIn,Events,Conditions,WindDirDegrees,DateUTC
12:53 AM,37.0,17.1,44,30.35,10.0,Calm,Calm,-,N/A,,Clear,0,2012-10-06 07:53:00
1:53 AM,36.0,17.1,46,30.35,10.0,Calm,Calm,-,N/A,,Clear,0,2012-10-06 08:53:00
3:53 AM,35.1,19.0,52,30.35,10.0,Calm,Calm,-,N/A,,Clear,0,2012-10-06 10:53:00
4:53 AM,30.9,17.1,57,30.36,10.0,Calm,Calm,-,N/A,,Clear,0,2012-10-06 11:53:00
5:53 AM,33.1,21.9,64,30.36,10.0,NNE,4.6,-,N/A,,Clear,30,2012-10-06 12:53:00
6:53 AM,33.8,24.8,70,30.34,10.0,Calm,Calm,-,N/A,,Clear,0,2012-10-06 13:53:00
7:53 AM,35.1,24.1,64,30.38,10.0,ENE,6.9,-,N/A,,Clear,70,2012-10-06 14:53:00
8:53 AM,39.9,24.1,53,30.38,10.0,NE,6.9,-,N/A,,Clear,40,2012-10-06 15:53:00
9:53 AM,44.1,27.0,51,30.38,10.0,ENE,5.8,-,N/A,,Clear,60,2012-10-06 16:53:00
10:53 AM,48.9,27.0,43,30.37,10.0,ENE,5.8,-,N/A,,Clear,60,2012-10-06 17:53:00
11:53 AM,52.0,25.0,35,30.36,10.0,Variable,5.8,-,N/A,,Clear,0,2012-10-06 18:53:00
12:53 PM,55.9,21.9,27,30.33,10.0,Calm,Calm,-,N/A,,Clear,0,2012-10-06 19:53:00
1:53 PM,59.0,19.9,22,30.31,10.0,ENE,4.6,-,N/A,,Clear,60,2012-10-06 20:53:00
2:53 PM,60.1,19.9,21,30.29,10.0,Calm,Calm,-,N/A,,Clear,0,2012-10-06 21:53:00
3:53 PM,61.0,19.9,21,30.27,10.0,NNE,5.8,-,N/A,,Clear,30,2012-10-06 22:53:00
4:53 PM,61.0,19.0,20,30.26,10.0,NNW,3.5,-,N/A,,Clear,340,2012-10-06 23:53:00
5:53 PM,60.1,19.0,20,30.25,10.0,NE,3.5,-,N/A,,Partly Cloudy,40,2012-10-07 00:53:00
6:53 PM,55.9,19.0,24,30.25,10.0,Calm,Calm,-,N/A,,Partly Cloudy,0,2012-10-07 01:53:00
7:53 PM,50.0,19.9,31,30.25,10.0,WSW,3.5,-,N/A,,Partly Cloudy,240,2012-10-07 02:53:00
8:53 PM,43.0,19.0,38,30.25,10.0,Calm,Calm,-,N/A,,Clear,0,2012-10-07 03:53:00
9:53 PM,39.9,18.0,41,30.24,10.0,SW,4.6,-,N/A,,Clear,230,2012-10-07 04:53:00
10:53 PM,42.1,21.9,45,30.23,10.0,Calm,Calm,-,N/A,,Clear,0,2012-10-07 05:53:00
11:53 PM,41.0,19.9,43,30.22,10.0,Calm,Calm,-,N/A,,Clear,0,2012-10-07 06:53:00